TimeMST,TemperatureF,Dew PointF,Humidity,Sea Level PressureIn,VisibilityMPH,Wind Direction,Wind SpeedMPH,Gust SpeedMPH,PrecipitationIn,Events,Conditions,WindDirDegrees,DateUTC
12:15 AM,24.8,23.0,93,30.29,10.0,SW,10.4,-,N/A,,Overcast,230,2012-11-13 07:15:00
12:35 AM,24.8,21.2,86,30.30,10.0,SW,8.1,-,N/A,,Overcast,220,2012-11-13 07:35:00
12:55 AM,24.8,21.2,86,30.30,10.0,SW,5.8,-,N/A,,Overcast,230,2012-11-13 07:55:00
1:15 AM,24.8,21.2,86,30.30,10.0,SW,5.8,-,N/A,,Overcast,230,2012-11-13 08:15:00
1:35 AM,24.8,21.2,86,30.30,10.0,Calm,Calm,-,N/A,,Overcast,0,2012-11-13 08:35:00
1:55 AM,24.8,21.2,86,30.30,10.0,Calm,Calm,-,N/A,,Overcast,0,2012-11-13 08:55:00
2:15 AM,24.8,21.2,86,30.30,10.0,Calm,Calm,-,N/A,,Overcast,0,2012-11-13 09:15:00
2:35 AM,24.8,21.2,86,30.30,10.0,South,4.6,-,N/A,,Overcast,190,2012-11-13 09:35:00
2:55 AM,24.8,21.2,86,30.30,10.0,South,5.8,-,N/A,,Overcast,190,2012-11-13 09:55:00
3:35 AM,24.8,21.2,86,30.30,10.0,SSW,5.8,-,N/A,,Overcast,210,2012-11-13 10:35:00
3:55 AM,26.6,21.2,80,30.30,10.0,SSW,5.8,-,N/A,,Overcast,200,2012-11-13 10:55:00
4:15 AM,26.6,21.2,80,30.30,10.0,SSW,3.5,-,N/A,,Overcast,200,2012-11-13 11:15:00
4:35 AM,26.6,21.2,80,30.30,8.0,SW,4.6,-,N/A,,Overcast,220,2012-11-13 11:35:00
4:55 AM,24.8,23.0,93,30.31,4.0,West,4.6,-,N/A,,Overcast,260,2012-11-13 11:55:00
5:15 AM,24.8,23.0,93,30.31,4.0,Calm,Calm,-,N/A,,Overcast,0,2012-11-13 12:15:00
5:35 AM,24.8,24.8,100,30.31,5.0,Calm,Calm,-,N/A,,Overcast,0,2012-11-13 12:35:00
5:55 AM,24.8,24.8,100,30.31,9.0,Calm,Calm,-,N/A,,Overcast,0,2012-11-13 12:55:00
6:15 AM,24.8,24.8,100,30.30,10.0,ESE,3.5,-,N/A,,Overcast,110,2012-11-13 13:15:00
6:35 AM,24.8,24.8,100,30.31,10.0,Calm,Calm,-,N/A,,Overcast,0,2012-11-13 13:35:00
6:52 AM,24.8,24.8,100,30.32,7.0,Calm,Calm,-,N/A,Snow,Light Snow,0,2012-11-13 13:52:00
8:58 AM,26.6,24.8,93,30.31,7.0,SSW,5.8,-,N/A,Snow,Light Snow,200,2012-11-13 15:58:00
8:59 AM,26.6,24.8,93,30.32,3.0,SSW,3.5,-,N/A,Snow,Light Snow,200,2012-11-13 15:59:00
10:47 AM,50.0,8.6,19,30.22,70.0,West,13.8,-,N/A,,Partly Cloudy,260,2012-11-13 17:47:00
10:51 AM,33.8,24.8,70,30.31,10.0,South,13.8,-,N/A,Snow,Snow,180,2012-11-13 17:51:00
11:51 AM,35.6,24.8,65,30.29,10.0,SSW,10.4,-,N/A,Snow,Snow,200,2012-11-13 18:51:00
12:53 PM,35.6,24.8,65,30.28,10.0,South,12.7,-,N/A,,Mostly Cloudy,180,2012-11-13 19:53:00
1:51 PM,35.6,26.6,70,30.27,10.0,South,10.4,-,N/A,,Overcast,170,2012-11-13 20:51:00
2:54 PM,35.6,26.6,70,30.25,10.0,South,12.7,-,N/A,,Overcast,180,2012-11-13 21:54:00
3:51 PM,35.6,26.6,70,30.25,10.0,South,15.0,-,N/A,,Mostly Cloudy,170,2012-11-13 22:51:00
4:51 PM,33.8,26.6,75,30.25,10.0,South,9.2,-,N/A,,Overcast,170,2012-11-13 23:51:00
5:51 PM,33.8,26.6,75,30.25,10.0,SSW,6.9,-,N/A,,Overcast,200,2012-11-14 00:51:00
6:55 PM,32.0,30.2,93,30.25,4.0,SSW,11.5,-,N/A,Snow,Light Snow,200,2012-11-14 01:55:00
7:55 PM,30.2,30.2,100,30.24,10.0,SSW,11.5,-,N/A,,Overcast,210,2012-11-14 02:55:00
8:51 PM,30.2,30.2,100,30.24,10.0,SW,8.1,-,N/A,,Overcast,220,2012-11-14 03:51:00
9:15 PM,30.2,30.2,100,30.23,10.0,WSW,6.9,-,N/A,,Overcast,240,2012-11-14 04:15:00
9:35 PM,30.2,30.2,100,30.23,10.0,SW,5.8,-,N/A,,Overcast,230,2012-11-14 04:35:00
9:55 PM,32.0,30.2,93,30.23,10.0,SSW,6.9,-,N/A,,Overcast,210,2012-11-14 04:55:00
10:15 PM,32.0,28.4,87,30.22,10.0,SSW,8.1,-,N/A,,Overcast,210,2012-11-14 05:15:00
10:35 PM,32.0,28.4,87,30.22,10.0,South,8.1,-,N/A,,Overcast,190,2012-11-14 05:35:00
10:55 PM,32.0,28.4,87,30.21,10.0,SSW,4.6,-,N/A,,Overcast,210,2012-11-14 05:55:00
11:35 PM,33.8,28.4,81,30.21,10.0,SSW,6.9,-,N/A,,Overcast,210,2012-11-14 06:35:00
11:55 PM,30.2,28.4,93,30.21,10.0,West,3.5,-,N/A,,Overcast,270,2012-11-14 06:55:00